Regional Weather Roundup
Issued by NWS

Home | Current Version | Previous Version | Graphics & Text | Print | Product List | Glossary On
Versions: 1 2 3 4 5 6 7 8 9 10 11 12 13 14 15 16 17 18 19 20 21 22 23 24 25 26 27 28 29 30 31 32 33 34 35 36 37 38 39 40 41 42 43 44 45 46 47 48 49 50
000
ASUS45 KBOU 010307
RWRCO

WEATHER ROUNDUP FOR COLORADO
NATIONAL WEATHER SERVICE DENVER/BOULDER CO
900 PM MDT MON AUG 31 2015

NOTE: "FAIR" INDICATES FEW OR NO CLOUDS BELOW 12000 FEET WITH NO
SIGNIFICANT WEATHER AND/OR OBSTRUCTIONS TO VISIBILITY.

COZ001>005-013-030-031-010400-
...NORTHWEST COLORADO...

CITY           SKY/WX    TMP DP  RH WIND       PRES   REMARKS
CRAIG          CLOUDY    58  48  69 NE7       30.22R
HAYDEN         NOT AVBL
MEEKER         MOCLDY    58  49  72 E12       30.23F
MOUNT WERNER   NOT AVBL
STEAMBOAT SPGS CLOUDY    56  45  66 SE8       30.26S
WALDEN         CLOUDY    50  45  81 SE12      30.34F
$$

COZ006>008-011-010400-
...WEST CENTRAL VALLEYS...

CITY           SKY/WX    TMP DP  RH WIND       PRES   REMARKS
GRAND JUNCTION MOCLDY    74  56  53 E3        30.06R
MONTROSE       CLOUDY    68  55  63 SE6       30.17R
EAGLE          PTCLDY    63  54  72 E5        30.27R
RIFLE          PTCLDY    70  46  42 N5        30.17R
DELTA          CLOUDY    73  54  51 NE7       30.11R
NUCLA          CLOUDY    72  37  28 CALM      30.19R
$$

COZ017>023-064>068-010400-
...SOUTHWEST COLORADO...

CITY           SKY/WX    TMP DP  RH WIND       PRES   REMARKS
DURANGO        CLOUDY    68  39  34 SW7       30.20R
CORTEZ         CLEAR     68  49  50 NE6       30.16R
PAGOSA SPRINGS CLOUDY    61  43  52 NE3       30.28R
TELLURIDE      CLOUDY    57  48  71 SE7       30.41S
WOLF CREEK PAS MOCLDY    46  37  71 SW5       30.62R
$$

COZ009-010-012-014-032>034-037-058>063-010400-
...CENTRAL COLORADO...

CITY           SKY/WX    TMP DP  RH WIND       PRES   REMARKS
ASPEN          PTCLDY    54  49  83 SW8       30.32R
BUENA VISTA    PTCLDY    57  51  79 SW6       30.32R
COPPER MTN     PTCLDY    46  41  81 W12       30.60R THUNDER
BERTHOUD PASS  FAIR      41  30  65 NW15      30.64R
COTTONWOOD PAS PTCLDY    59  45  58 CALM      30.45R
GUNNISON       PTCLDY    61  45  55 N3        30.32R
KREMMLING      CLOUDY    59  43  55 N8        30.34R
LEADVILLE      PTCLDY    49  41  74 NE5       30.44R
MONARCH PASS   PTCLDY    46  37  71 W13       30.69S
SALIDA         MOCLDY    64  48  56 CALM      30.35R
SUNLIGHT       PTCLDY    50  46  87 CALM      30.55R
WILKERSON PASS CLOUDY    50  37  62 NW8       30.59R THUNDER
$$

COZ069>075-010400-
...SAN LUIS VALLEY/SANGRE DE CRISTO MOUNTAINS...

CITY           SKY/WX    TMP DP  RH WIND       PRES   REMARKS
ALAMOSA        LGT RAIN  59  51  75 E8        30.28F
LA VETA PASS   CLOUDY    50  43  76 S12G17    30.48R
SAGUACHE       NOT AVBL
$$

COZ035-036-038>040-010400-
...NORTHERN COLORADO FRONT RANGE...

CITY           SKY/WX    TMP DP  RH WIND       PRES   REMARKS
DENVER INTL AP PTCLDY    62  54  74 CALM      30.16S
DMNS CITY PARK   N/A     64  55  73 E9        30.15S
AURORA         MOCLDY    62  55  78 S3        30.19R
FRONT RANGE AP MOCLDY    57  54  88 N3        30.18
ERIE MUNI ARPT PTCLDY    65  57  75 CALM      30.16R
BOULDER MUN AP PTCLDY    64  59  82 E3        30.16R
CENTENNIAL     MOCLDY    63  54  72 E3        30.19R
BROOMFIELD     MOCLDY    64  57  77 E9        30.19R
FORT COLLINS   MOCLDY    68  50  52 N5        30.16R
LONGMONT       MOCLDY    68  56  65 CALM      30.17R
$$

COZ041-046-047-076>085-087-088-010400-
...PIKES PEAK/PALMER DIVIDE AND SOUTHERN FOOTHILLS...

CITY           SKY/WX    TMP DP  RH WIND       PRES   REMARKS
COLO. SPRINGS  MOCLDY    63  52  67 NW12      30.20S
A. F. ACADEMY  MOCLDY    60  55  83 N6        30.22R
ELLICOTT       MOCLDY   N/A N/A N/A NE10      30.17F
FALCON         MOCLDY    60  50  70 MISG      30.25R
FORT CARSON    MOCLDY    62  57  82 NW12      30.16R
LIMON          CLOUDY    60  58  92 N3        30.16R
MONUMENT HILL  MOCLDY    55  52  88 NW3       30.26R
TRINIDAD       CLOUDY    71  49  45 W9        30.13R
$$

COZ042>045-048>051-090-091-010400-
...NORTHEAST COLORADO...

CITY           SKY/WX    TMP DP  RH WIND       PRES   REMARKS
GREELEY ARPT   CLOUDY    64  52  63 CALM      30.15R
AKRON          LGT RAIN  64  59  83 W20       30.12R
BURLINGTON     CLOUDY    72  55  55 W23G40    30.05R THUNDER
WRAY           CLOUDY    79  52  39 N9        29.98R
STERLING       CLOUDY    73  52  46 NW7       30.06R
HOLYOKE        CLOUDY    75  55  50 N14       30.02R
FORT MORGAN    CLOUDY    63  56  79 S5        30.11F
$$

COZ086-089-092>099-010400-
...SOUTHEAST COLORADO...

CITY           SKY/WX    TMP DP  RH WIND       PRES   REMARKS
PUEBLO         MOCLDY    72  56  57 N13       30.06S
LA JUNTA       CLOUDY    78  52  40 N14       30.03R
LAMAR          CLOUDY    75  56  51 N24G32    29.94R
SPRINGFIELD      N/A     79  53  40 W14G25    30.03R
$$




USA.gov is the U.S. government's official web portal to all federal, state and local government web resources and services.